Ocala, FL

3:30 PM EST on November 18, 2017 (GMT -0500)
Ocala Regional-Taylor

Weather History for KOCF - September, 2012

Change the Weather History Date:

Tuesday, September 11, 2012

  Actual Average Record
Temperature  
Mean Temperature 78 °F -  
Max Temperature 86 °F 86 °F 93 °F (1997)
Min Temperature 69 °F 68 °F 64 °F (2003)
Cooling Degree Days 12    
Growing Degree Days 28 (Base 50)    
Moisture  
Dew Point 65 °F    
Average Humidity 72    
Maximum Humidity 88    
Minimum Humidity 48    
Precipitation  
Precipitation 0.00 in - - ()
Sea Level Pressure  
Sea Level Pressure 30.11 in    
Wind  
Wind Speed 4 mph (NE)    
Max Wind Speed 15 mph    
Max Gust Speed 18 mph    
Visibility 10 miles    
Events      
Averages and records for this station are not official NWS values.
T = Trace of Precipitation, MM = Missing Value Source: NWS Daily Summary

Daily Weather History Graph

Daily Weather History Graph

Search for Another Location

Airport or City:

Trip Planner

Search our weather history database for the weather conditions in past years. The results will help you decide how hot, cold, wet, or windy it might be!

Date:

Astronomy

Sep. 11, 2012 Rise Set
Actual Time 7:11 AM EDT 7:38 PM EDT
Civil Twilight 6:48 AM EDT 8:02 PM EDT
Nautical Twilight 6:20 AM EDT 8:29 PM EDT
Astronomical Twilight 5:51 AM EDT 8:58 PM EDT
Moon 2:45 AM EDT (9/11) 4:32 PM EDT (9/11)
Length of Visible Light 13h 13m
Length of Day
12h 26m
Waning Crescent, 21% of the Moon is Illuminated
Sep 11
Waning Crescent
Sep 15
New
Sep 22
First Quarter
Sep 29
Full
Oct 8
Last Quarter

Hourly Weather History & Observations

Time (EDT) Temp. Heat Index Dew Point Humidity Pressure Visibility Wind Dir Wind Speed Gust Speed Precip Events Conditions
12:15 AM 73.4 °F - 64.4 °F 73% 30.07 in 10.0 mi NE 3.5 mph - N/A   Scattered Clouds
12:35 AM 73.4 °F - 64.4 °F 73% 30.07 in 10.0 mi NE 3.5 mph - N/A   Clear
12:55 AM 73.4 °F - 64.4 °F 73% 30.07 in 10.0 mi NE 4.6 mph - N/A   Scattered Clouds
1:15 AM 71.6 °F - 66.2 °F 83% 30.07 in 10.0 mi NNE 3.5 mph - N/A   Mostly Cloudy
1:35 AM 73.4 °F - 66.2 °F 78% 30.07 in 10.0 mi Calm Calm - N/A   Mostly Cloudy
1:55 AM 73.4 °F - 66.2 °F 78% 30.07 in 10.0 mi Calm Calm - N/A   Mostly Cloudy
2:15 AM 73.4 °F - 66.2 °F 78% 30.06 in 10.0 mi NE 4.6 mph - N/A   Mostly Cloudy
2:35 AM 71.6 °F - 66.2 °F 83% 30.06 in 10.0 mi NE 4.6 mph - N/A   Mostly Cloudy
2:55 AM 71.6 °F - 66.2 °F 83% 30.06 in 10.0 mi NNE 4.6 mph - N/A   Mostly Cloudy
3:15 AM 73.4 °F - 66.2 °F 78% 30.06 in 10.0 mi NNE 4.6 mph - N/A   Mostly Cloudy
3:35 AM 69.8 °F - 66.2 °F 88% 30.06 in 10.0 mi NE 3.5 mph - N/A   Mostly Cloudy
3:55 AM 71.6 °F - 66.2 °F 83% 30.05 in 10.0 mi NE 3.5 mph - N/A   Scattered Clouds
4:15 AM 71.6 °F - 66.2 °F 83% 30.05 in 10.0 mi NNE 3.5 mph - N/A   Scattered Clouds
4:35 AM 69.8 °F - 66.2 °F 88% 30.05 in 10.0 mi NNE 3.5 mph - N/A   Partly Cloudy
4:55 AM 69.8 °F - 66.2 °F 88% 30.06 in 10.0 mi NNE 3.5 mph - N/A   Clear
5:15 AM 71.6 °F - 66.2 °F 83% - 10.0 mi NE 3.5 mph - N/A   Partly Cloudy
5:35 AM 69.8 °F - 66.2 °F 88% 30.07 in 10.0 mi Calm Calm - N/A   Mostly Cloudy
5:55 AM 71.6 °F - 66.2 °F 83% 30.07 in 10.0 mi Calm Calm - N/A   Overcast
6:15 AM 71.6 °F - 66.2 °F 83% 30.08 in 10.0 mi NNE 3.5 mph - N/A   Mostly Cloudy
6:35 AM 69.8 °F - 66.2 °F 88% 30.08 in 10.0 mi Calm Calm - N/A   Mostly Cloudy
6:50 AM 71.6 °F - 66.2 °F 83% 30.08 in 10.0 mi NE 3.5 mph - N/A   Partly Cloudy
7:50 AM 71.6 °F - 66.2 °F 83% 30.10 in 10.0 mi NE 3.5 mph - N/A   Scattered Clouds
8:50 AM 75.2 °F - 68.0 °F 78% 30.13 in 10.0 mi ENE 3.5 mph - N/A   Scattered Clouds
9:50 AM 78.8 °F - 66.2 °F 65% 30.13 in 10.0 mi ENE 9.2 mph 17.3 mph N/A   Scattered Clouds
10:50 AM 82.4 °F 84.6 °F 66.2 °F 58% 30.15 in 10.0 mi East 8.1 mph - N/A   Scattered Clouds
11:50 AM 82.4 °F 83.9 °F 64.4 °F 54% 30.15 in 10.0 mi East 10.4 mph 16.1 mph N/A   Mostly Cloudy
12:50 PM 84.2 °F 86.6 °F 66.2 °F 55% 30.15 in 10.0 mi ENE 6.9 mph - N/A   Scattered Clouds
1:50 PM 86.0 °F 87.3 °F 64.4 °F 48% 30.14 in 10.0 mi ENE 6.9 mph - N/A   Mostly Cloudy
2:50 PM 84.2 °F 85.6 °F 64.4 °F 51% 30.12 in 10.0 mi ENE 10.4 mph - N/A   Scattered Clouds
3:50 PM 84.2 °F 85.6 °F 64.4 °F 51% 30.10 in 10.0 mi ENE 10.4 mph 17.3 mph N/A   Scattered Clouds
4:50 PM 84.2 °F 85.0 °F 62.6 °F 48% 30.11 in 10.0 mi East 9.2 mph 18.4 mph N/A   Scattered Clouds
5:50 PM 82.4 °F 83.4 °F 62.6 °F 51% 30.11 in 10.0 mi ENE 15.0 mph - N/A   Scattered Clouds
6:50 PM 80.6 °F 81.1 °F 59.0 °F 48% 30.11 in 10.0 mi ENE 9.2 mph - N/A   Clear
7:55 PM 78.8 °F - 60.8 °F 54% 30.12 in 10.0 mi East 5.8 mph - N/A   Clear
8:15 PM 78.8 °F - 62.6 °F 57% 30.13 in 10.0 mi ENE 4.6 mph - N/A   Clear
8:35 PM 78.8 °F - 62.6 °F 57% 30.14 in 10.0 mi NE 4.6 mph - N/A   Clear
8:55 PM 75.2 °F - 62.6 °F 65% 30.14 in 10.0 mi NE 3.5 mph - N/A   Clear
9:15 PM 75.2 °F - 62.6 °F 65% 30.15 in 10.0 mi NE 3.5 mph - N/A   Clear
9:35 PM 75.2 °F - 62.6 °F 65% 30.15 in 10.0 mi Calm Calm - N/A   Clear
9:55 PM 73.4 °F - 64.4 °F 73% 30.16 in 10.0 mi NNE 3.5 mph - N/A   Clear
10:15 PM 73.4 °F - 64.4 °F 73% 30.16 in 10.0 mi Calm Calm - N/A   Clear
10:35 PM 73.4 °F - 64.4 °F 73% 30.17 in 10.0 mi North 3.5 mph - N/A   Clear
10:55 PM 71.6 °F - 64.4 °F 78% 30.17 in 10.0 mi NE 3.5 mph - N/A   Clear
11:15 PM 71.6 °F - 64.4 °F 78% 30.17 in 10.0 mi NNE 3.5 mph - N/A   Clear
11:35 PM 71.6 °F - 64.4 °F 78% 30.17 in 10.0 mi NE 3.5 mph - N/A   Clear
11:55 PM 71.6 °F - 64.4 °F 78% 30.17 in 10.0 mi Calm Calm - N/A   Clear